THORAD AGENA D DEB, 4751

Orbit data source: Space-Track

THORAD AGENA D DEB, 4751 is space debris in SSO originally from a launch on Wed, 08 Apr 1970 UTC launched from the Air Force Western Test Range (AFWTR). Debris objects in space refer to the collection of defunct objects orbiting the Earth. Examples of debris include non-operational satellites, rocket bodies, and fragments generated from explosions, collisions, or faulty payload assembly.

Loading next visibility...
Identifier
4751, 1970-025CZ
Orbit
SSO
Country
Flag of USUS
Related business
Manufacturer
Unknown
Mission
Spacecraft
Bus & Motor
Unknown
Mass
Unknown
Launch date (UTC)
1970-04-08 (56 years ago)
Launch vehicle
Unknown
Launch site
Air Force Western Test Range (AFWTR)
Object type
Payload
Rocket body
Debris
Shape & HBR
Unknown shape, 0.1 m
Radar Cross Section
Small (<0.1 m²)

Expand to show TLE details & history
Last TLE update: 8 hours ago

TLE from 8 hours ago
0 THORAD AGENA D DEB
1  4751U 70025CZ  25299.69778939  .00001326  00000-0  11714-2 0  9994
2  4751 100.1216  15.9397 0003581 299.0820  60.9975 13.87255145773184
Epoch: 2025-10-26T16:44Z
TLE epoch observation values (Epoch: 2025-10-26T16:44:49.003Z)
Latitude
0.00001°
Longitude
89.42526°
Altitude
939.818 km
Speed
7.383 km/s
True Right ascension
01h 03m 45s
True Declination
0° 00' 00"
Sunlit
Object was in full shadow at epoch
Visualization orbit readout
Latitude
Unknown
Longitude
Unknown
Altitude
Unknown
Speed
Unknown
Apparent Right ascension
Unknown
Apparent Declination
Unknown
Sunlit
N/A
Visualization observer readout
Local Sidereal Time
20:20:01
Azimuth
Unknown
Elevation
Unknown
Doppler factor
Unknown
Orbital elements
Apogee altitude
938.159 km
Perigee altitude
932.921 km
Semi-major axis
7,313.677 km
Eccentricity
0.00036
Inclination
100.1216°
RAAN
15.9397°
Arg. of periapsis
299.082°
True anomaly
61.0334°
Mean anomaly
60.9975°
Eccentric anomaly
61.01545°
Mean motion
3.47008 °/min
Orbital period
103.74 mins
BSTAR
0.0011714
Loading maneuver chart data...
Computing Atmospheric mass density...

Documentation

Showing up to 5 results
|